Time,TemperatureF,DewpointF,PressureIn,WindDirection,WindDirectionDegrees,WindSpeedMPH,WindSpeedGustMPH,Humidity,HourlyPrecipIn,Conditions,Clouds,dailyrainin,SoftwareType,DateUTC
2013-02-10 00:01:00,35.0,29.0,-100.00,SSE,150,6.0,16.0,80,-99.99,,,-99.99,,2013-02-10 06:01:00,
2013-02-10 00:11:00,35.0,29.0,-100.00,South,170,6.0,16.0,79,-99.99,,,-99.99,,2013-02-10 06:11:00,
2013-02-10 00:21:00,35.0,29.0,-100.00,SSE,165,6.0,16.0,79,-99.99,,,-99.99,,2013-02-10 06:21:00,
2013-02-10 00:32:00,35.0,29.0,-100.00,SSE,165,6.0,16.0,79,-99.99,,,-99.99,,2013-02-10 06:32:00,
2013-02-10 00:42:00,35.0,29.0,-100.00,SSE,150,8.0,16.0,78,-99.99,,,-99.99,,2013-02-10 06:42:00,
2013-02-10 00:52:00,36.0,29.0,-100.00,SE,145,9.0,17.0,77,-99.99,,,-99.99,,2013-02-10 06:52:00,
2013-02-10 01:01:00,36.0,29.0,-100.00,SE,145,9.0,17.0,77,-99.99,,,-99.99,,2013-02-10 07:01:00,
2013-02-10 01:11:00,36.0,29.0,-100.00,South,185,8.0,14.0,76,-99.99,,,-99.99,,2013-02-10 07:11:00,
2013-02-10 01:21:00,35.0,28.0,-100.00,SE,140,4.0,11.0,75,-99.99,,,-99.99,,2013-02-10 07:21:00,
2013-02-10 01:31:00,35.0,28.0,-100.00,SE,140,4.0,11.0,75,-99.99,,,-99.99,,2013-02-10 07:31:00,
2013-02-10 01:41:00,35.0,28.0,-100.00,SSE,150,4.0,14.0,75,-99.99,,,-99.99,,2013-02-10 07:41:00,
2013-02-10 01:52:00,36.0,28.0,-100.00,South,175,5.0,11.0,75,-99.99,,,-99.99,,2013-02-10 07:52:00,
2013-02-10 02:01:00,36.0,28.0,-100.00,South,175,5.0,11.0,75,-99.99,,,-99.99,,2013-02-10 08:01:00,
2013-02-10 02:11:00,36.0,29.0,-100.00,South,170,6.0,11.0,75,-99.99,,,-99.99,,2013-02-10 08:11:00,
2013-02-10 02:21:00,36.0,29.0,-100.00,SSE,165,10.0,14.0,75,-99.99,,,-99.99,,2013-02-10 08:21:00,
2013-02-10 02:32:00,36.0,29.0,-100.00,SSE,165,10.0,14.0,75,-99.99,,,-99.99,,2013-02-10 08:32:00,
2013-02-10 02:43:00,35.0,29.0,-100.00,SE,145,8.0,14.0,76,-99.99,,,-99.99,,2013-02-10 08:43:00,
2013-02-10 02:52:00,35.0,29.0,-100.00,SSE,160,6.0,12.0,78,-99.99,,,-99.99,,2013-02-10 08:52:00,
2013-02-10 03:02:00,35.0,29.0,-100.00,SSE,160,6.0,12.0,78,-99.99,,,-99.99,,2013-02-10 09:02:00,
2013-02-10 03:11:00,35.0,29.0,-100.00,SSE,150,8.0,11.0,79,-99.99,,,-99.99,,2013-02-10 09:11:00,
2013-02-10 03:21:00,35.0,30.0,-100.00,SE,145,6.0,11.0,81,-99.99,,,-99.99,,2013-02-10 09:21:00,
2013-02-10 03:32:00,35.0,30.0,-100.00,SE,145,6.0,11.0,81,-99.99,,,-99.99,,2013-02-10 09:32:00,
2013-02-10 03:41:00,35.0,30.0,-100.00,SE,140,8.0,14.0,82,-99.99,,,-99.99,,2013-02-10 09:41:00,
2013-02-10 03:52:00,35.0,31.0,-100.00,SE,145,4.0,11.0,83,-99.99,,,-99.99,,2013-02-10 09:52:00,
2013-02-10 04:01:00,35.0,31.0,-100.00,SE,145,4.0,11.0,83,-99.99,,,-99.99,,2013-02-10 10:01:00,
2013-02-10 04:11:00,36.0,31.0,-100.00,SSE,150,4.0,9.0,83,-99.99,,,-99.99,,2013-02-10 10:11:00,
2013-02-10 04:21:00,36.0,31.0,-100.00,South,170,5.0,11.0,83,-99.99,,,-99.99,,2013-02-10 10:21:00,
2013-02-10 04:31:00,36.0,31.0,-100.00,South,170,5.0,11.0,83,-99.99,,,-99.99,,2013-02-10 10:31:00,
2013-02-10 04:42:00,36.0,32.0,-100.00,South,170,6.0,14.0,84,-99.99,,,-99.99,,2013-02-10 10:42:00,
2013-02-10 04:52:00,36.0,32.0,-100.00,SSE,150,9.0,14.0,85,-99.99,,,-99.99,,2013-02-10 10:52:00,
2013-02-10 05:01:00,36.0,32.0,-100.00,SSE,150,9.0,14.0,85,-99.99,,,-99.99,,2013-02-10 11:01:00,
2013-02-10 05:11:00,36.0,32.0,-100.00,South,170,6.0,17.0,85,-99.99,,,-99.99,,2013-02-10 11:11:00,
2013-02-10 05:22:00,37.0,33.0,-100.00,South,175,7.0,15.0,86,-99.99,,,-99.99,,2013-02-10 11:22:00,
2013-02-10 05:32:00,37.0,33.0,-100.00,South,175,7.0,15.0,86,-99.99,,,-99.99,,2013-02-10 11:32:00,
2013-02-10 05:42:00,36.0,33.0,-100.00,SSE,155,7.0,14.0,87,-99.99,,,-99.99,,2013-02-10 11:42:00,
2013-02-10 05:52:00,36.0,33.0,-100.00,SSE,155,5.0,16.0,88,-99.99,,,-99.99,,2013-02-10 11:52:00,
2013-02-10 06:02:00,36.0,33.0,-100.00,SSE,155,5.0,16.0,88,-99.99,,,-99.99,,2013-02-10 12:02:00,
2013-02-10 06:12:00,36.0,34.0,-100.00,SE,135,11.0,16.0,89,-99.99,,,-99.99,,2013-02-10 12:12:00,
2013-02-10 06:21:00,36.0,34.0,-100.00,SE,145,6.0,14.0,90,-99.99,,,-99.99,,2013-02-10 12:21:00,
2013-02-10 06:32:00,36.0,34.0,-100.00,SE,145,6.0,14.0,90,-99.99,,,-99.99,,2013-02-10 12:32:00,
2013-02-10 06:42:00,37.0,34.0,-100.00,ESE,120,5.0,13.0,90,-99.99,,,-99.99,,2013-02-10 12:42:00,
2013-02-10 06:52:00,37.0,35.0,-100.00,SSE,150,7.0,12.0,91,-99.99,,,-99.99,,2013-02-10 12:52:00,
2013-02-10 07:02:00,37.0,35.0,-100.00,SSE,150,7.0,12.0,91,-99.99,,,-99.99,,2013-02-10 13:02:00,
2013-02-10 07:11:00,37.0,34.0,-100.00,ESE,115,5.0,11.0,91,-99.99,,,-99.99,,2013-02-10 13:11:00,
2013-02-10 07:21:00,36.0,34.0,-100.00,ESE,105,4.0,11.0,92,-99.99,,,-99.99,,2013-02-10 13:21:00,
2013-02-10 07:31:00,36.0,34.0,-100.00,ESE,105,4.0,11.0,92,-99.99,,,-99.99,,2013-02-10 13:31:00,
2013-02-10 07:41:00,36.0,34.0,-100.00,ESE,105,4.0,11.0,92,-99.99,,,-99.99,,2013-02-10 13:41:00,
2013-02-10 07:52:00,37.0,35.0,-100.00,SSE,150,8.0,18.0,93,-99.99,,,-99.99,,2013-02-10 13:52:00,
2013-02-10 08:02:00,37.0,35.0,-100.00,SSE,150,8.0,18.0,93,-99.99,,,-99.99,,2013-02-10 14:02:00,
2013-02-10 08:11:00,37.0,35.0,-100.00,SE,125,7.0,11.0,93,-99.99,,,-99.99,,2013-02-10 14:11:00,
2013-02-10 08:21:00,37.0,35.0,-100.00,SE,135,8.0,19.0,93,-99.99,,,-99.99,,2013-02-10 14:21:00,
2013-02-10 08:32:00,37.0,35.0,-100.00,SE,135,8.0,19.0,93,-99.99,,,-99.99,,2013-02-10 14:32:00,
2013-02-10 08:41:00,37.0,35.0,-100.00,SE,135,8.0,19.0,93,-99.99,,,-99.99,,2013-02-10 14:41:00,
2013-02-10 08:52:00,37.0,36.0,-100.00,SE,130,9.0,21.0,94,-99.99,,,-99.99,,2013-02-10 14:52:00,
2013-02-10 09:02:00,38.0,36.0,-100.00,SE,135,13.0,20.0,94,-99.99,,,-99.99,,2013-02-10 15:02:00,
2013-02-10 09:11:00,38.0,36.0,-100.00,SE,135,13.0,20.0,94,-99.99,,,-99.99,,2013-02-10 15:11:00,
2013-02-10 09:22:00,38.0,36.0,-100.00,SSE,150,9.0,19.0,94,-99.99,,,-99.99,,2013-02-10 15:22:00,
2013-02-10 09:32:00,38.0,36.0,-100.00,SSE,150,9.0,19.0,94,-99.99,,,-99.99,,2013-02-10 15:32:00,
2013-02-10 09:42:00,38.0,37.0,-100.00,SE,130,11.0,19.0,94,-99.99,,,-99.99,,2013-02-10 15:42:00,
2013-02-10 09:52:00,38.0,37.0,-100.00,SE,145,11.0,19.0,94,-99.99,,,-99.99,,2013-02-10 15:52:00,
2013-02-10 10:02:00,38.0,37.0,-100.00,SE,145,11.0,19.0,94,-99.99,,,-99.99,,2013-02-10 16:02:00,
2013-02-10 10:12:00,39.0,37.0,-100.00,SSE,150,8.0,18.0,94,-99.99,,,-99.99,,2013-02-10 16:12:00,
2013-02-10 10:22:00,39.0,37.0,-100.00,SSE,155,11.0,21.0,94,-99.99,,,-99.99,,2013-02-10 16:22:00,
2013-02-10 10:32:00,39.0,37.0,-100.00,SSE,155,11.0,21.0,94,-99.99,,,-99.99,,2013-02-10 16:32:00,
2013-02-10 10:42:00,39.0,37.0,-100.00,SE,140,18.0,28.0,94,-99.99,,,-99.99,,2013-02-10 16:42:00,
2013-02-10 10:52:00,39.0,38.0,-100.00,SE,125,14.0,24.0,94,-99.99,,,-99.99,,2013-02-10 16:52:00,
2013-02-10 11:02:00,39.0,38.0,-100.00,SE,125,14.0,24.0,94,-99.99,,,-99.99,,2013-02-10 17:02:00,
2013-02-10 11:11:00,39.0,37.0,-100.00,South,175,14.0,27.0,94,-99.99,,,-99.99,,2013-02-10 17:11:00,
2013-02-10 11:22:00,39.0,38.0,-100.00,SSE,155,18.0,28.0,94,-99.99,,,-99.99,,2013-02-10 17:22:00,
2013-02-10 11:32:00,39.0,38.0,-100.00,SSE,155,18.0,28.0,94,-99.99,,,-99.99,,2013-02-10 17:32:00,
2013-02-10 11:42:00,39.0,38.0,-100.00,SSE,160,18.0,27.0,94,-99.99,,,-99.99,,2013-02-10 17:42:00,
2013-02-10 11:52:00,40.0,38.0,-100.00,SE,135,15.0,22.0,94,-99.99,,,-99.99,,2013-02-10 17:52:00,
2013-02-10 12:02:00,40.0,38.0,-100.00,SE,135,15.0,22.0,94,-99.99,,,-99.99,,2013-02-10 18:02:00,
2013-02-10 12:11:00,41.0,39.0,-100.00,SSE,155,12.0,26.0,94,-99.99,,,-99.99,,2013-02-10 18:11:00,
2013-02-10 12:22:00,42.0,40.0,-100.00,South,170,17.0,29.0,94,-99.99,,,-99.99,,2013-02-10 18:22:00,
2013-02-10 12:32:00,42.0,40.0,-100.00,South,170,17.0,29.0,94,-99.99,,,-99.99,,2013-02-10 18:32:00,
2013-02-10 12:42:00,42.0,40.0,-100.00,SE,140,16.0,28.0,94,-99.99,,,-99.99,,2013-02-10 18:42:00,
2013-02-10 12:52:00,43.0,41.0,-100.00,SSE,160,20.0,32.0,95,-99.99,,,-99.99,,2013-02-10 18:52:00,
2013-02-10 13:02:00,43.0,41.0,-100.00,SSE,160,20.0,32.0,95,-99.99,,,-99.99,,2013-02-10 19:02:00,
2013-02-10 13:12:00,43.0,42.0,-100.00,South,175,14.0,37.0,95,-99.99,,,-99.99,,2013-02-10 19:12:00,
2013-02-10 13:22:00,44.0,42.0,-100.00,SSE,150,16.0,29.0,95,-99.99,,,-99.99,,2013-02-10 19:22:00,
2013-02-10 13:32:00,44.0,42.0,-100.00,SSE,150,16.0,29.0,95,-99.99,,,-99.99,,2013-02-10 19:32:00,
2013-02-10 13:42:00,44.0,43.0,-100.00,South,185,20.0,32.0,95,-99.99,,,-99.99,,2013-02-10 19:42:00,
2013-02-10 13:52:00,44.0,43.0,-100.00,South,170,19.0,32.0,95,-99.99,,,-99.99,,2013-02-10 19:52:00,
2013-02-10 14:02:00,44.0,43.0,-100.00,South,170,19.0,32.0,95,-99.99,,,-99.99,,2013-02-10 20:02:00,
2013-02-10 14:11:00,45.0,43.0,-100.00,SE,145,15.0,26.0,94,-99.99,,,-99.99,,2013-02-10 20:11:00,
2013-02-10 14:22:00,45.0,43.0,-100.00,South,170,16.0,28.0,94,-99.99,,,-99.99,,2013-02-10 20:22:00,
2013-02-10 14:32:00,45.0,43.0,-100.00,South,170,16.0,28.0,94,-99.99,,,-99.99,,2013-02-10 20:32:00,
2013-02-10 14:42:00,45.0,43.0,-100.00,South,175,21.0,37.0,93,-99.99,,,-99.99,,2013-02-10 20:42:00,
2013-02-10 14:52:00,46.0,44.0,-100.00,South,180,16.0,32.0,93,-99.99,,,-99.99,,2013-02-10 20:52:00,
2013-02-10 15:02:00,46.0,44.0,-100.00,South,180,16.0,32.0,93,-99.99,,,-99.99,,2013-02-10 21:02:00,
2013-02-10 15:11:00,46.0,44.0,-100.00,South,190,13.0,29.0,92,-99.99,,,-99.99,,2013-02-10 21:11:00,
2013-02-10 15:22:00,46.0,44.0,-100.00,South,185,14.0,26.0,92,-99.99,,,-99.99,,2013-02-10 21:22:00,
2013-02-10 15:32:00,46.0,44.0,-100.00,South,185,14.0,26.0,92,-99.99,,,-99.99,,2013-02-10 21:32:00,
2013-02-10 15:42:00,46.0,44.0,-100.00,SSE,165,11.0,30.0,92,-99.99,,,-99.99,,2013-02-10 21:42:00,
2013-02-10 15:52:00,46.0,44.0,-100.00,South,190,14.0,26.0,92,-99.99,,,-99.99,,2013-02-10 21:52:00,
2013-02-10 16:02:00,46.0,44.0,-100.00,South,190,14.0,26.0,92,-99.99,,,-99.99,,2013-02-10 22:02:00,
2013-02-10 16:11:00,47.0,45.0,-100.00,SSE,165,12.0,26.0,92,-99.99,,,-99.99,,2013-02-10 22:11:00,
2013-02-10 16:22:00,47.0,45.0,-100.00,South,190,11.0,29.0,92,-99.99,,,-99.99,,2013-02-10 22:22:00,
2013-02-10 16:32:00,47.0,45.0,-100.00,South,190,11.0,29.0,92,-99.99,,,-99.99,,2013-02-10 22:32:00,
2013-02-10 16:42:00,47.0,45.0,-100.00,South,185,16.0,32.0,93,-99.99,,,-99.99,,2013-02-10 22:42:00,
2013-02-10 16:53:00,47.0,45.0,-100.00,SSW,200,15.0,32.0,93,-99.99,,,-99.99,,2013-02-10 22:53:00,
2013-02-10 17:02:00,47.0,45.0,-100.00,SSW,200,15.0,32.0,93,-99.99,,,-99.99,,2013-02-10 23:02:00,
2013-02-10 17:11:00,47.0,45.0,-100.00,South,190,12.0,28.0,93,-99.99,,,-99.99,,2013-02-10 23:11:00,
2013-02-10 17:22:00,47.0,46.0,-100.00,South,180,16.0,25.0,93,-99.99,,,-99.99,,2013-02-10 23:22:00,
2013-02-10 17:32:00,47.0,46.0,-100.00,South,180,16.0,25.0,93,-99.99,,,-99.99,,2013-02-10 23:32:00,
2013-02-10 17:42:00,48.0,46.0,-100.00,South,170,16.0,27.0,93,-99.99,,,-99.99,,2013-02-10 23:42:00,
2013-02-10 17:52:00,48.0,46.0,-100.00,South,175,14.0,25.0,93,-99.99,,,-99.99,,2013-02-10 23:52:00,
2013-02-10 18:02:00,48.0,46.0,-100.00,South,175,14.0,25.0,93,-99.99,,,-99.99,,2013-02-11 00:02:00,
2013-02-10 18:11:00,48.0,46.0,-100.00,SSW,195,15.0,30.0,93,-99.99,,,-99.99,,2013-02-11 00:11:00,
2013-02-10 18:22:00,48.0,46.0,-100.00,SSW,200,13.0,30.0,93,-99.99,,,-99.99,,2013-02-11 00:22:00,
2013-02-10 18:32:00,48.0,46.0,-100.00,SSW,200,13.0,30.0,93,-99.99,,,-99.99,,2013-02-11 00:32:00,
2013-02-10 18:42:00,48.0,45.0,-100.00,SSW,195,13.0,29.0,92,-99.99,,,-99.99,,2013-02-11 00:42:00,
2013-02-10 18:52:00,48.0,46.0,-100.00,SSW,200,14.0,28.0,92,-99.99,,,-99.99,,2013-02-11 00:52:00,
2013-02-10 19:01:00,48.0,46.0,-100.00,SSW,200,14.0,28.0,92,-99.99,,,-99.99,,2013-02-11 01:01:00,
2013-02-10 19:11:00,48.0,46.0,-100.00,South,185,13.0,29.0,92,-99.99,,,-99.99,,2013-02-11 01:11:00,
2013-02-10 19:21:00,48.0,46.0,-100.00,SSW,195,16.0,28.0,92,-99.99,,,-99.99,,2013-02-11 01:21:00,
2013-02-10 19:32:00,48.0,46.0,-100.00,SSW,195,16.0,28.0,92,-99.99,,,-99.99,,2013-02-11 01:32:00,
2013-02-10 19:42:00,48.0,46.0,-100.00,SSW,195,16.0,28.0,92,-99.99,,,-99.99,,2013-02-11 01:42:00,
2013-02-10 19:52:00,48.0,45.0,-100.00,SSW,200,16.0,27.0,92,-99.99,,,-99.99,,2013-02-11 01:52:00,
2013-02-10 20:01:00,48.0,45.0,-100.00,SSW,200,16.0,27.0,92,-99.99,,,-99.99,,2013-02-11 02:01:00,
2013-02-10 20:11:00,47.0,45.0,-100.00,South,190,12.0,26.0,92,-99.99,,,-99.99,,2013-02-11 02:11:00,
2013-02-10 20:21:00,47.0,45.0,-100.00,SSW,200,15.0,23.0,92,-99.99,,,-99.99,,2013-02-11 02:21:00,
2013-02-10 20:32:00,47.0,45.0,-100.00,SSW,200,15.0,23.0,92,-99.99,,,-99.99,,2013-02-11 02:32:00,
2013-02-10 20:42:00,47.0,45.0,-100.00,South,190,10.0,27.0,92,-99.99,,,-99.99,,2013-02-11 02:42:00,
2013-02-10 20:52:00,47.0,45.0,-100.00,South,190,11.0,22.0,92,-99.99,,,-99.99,,2013-02-11 02:52:00,
2013-02-10 21:02:00,47.0,45.0,-100.00,South,190,11.0,22.0,92,-99.99,,,-99.99,,2013-02-11 03:02:00,
2013-02-10 21:11:00,47.0,45.0,-100.00,SSW,205,6.0,20.0,92,-99.99,,,-99.99,,2013-02-11 03:11:00,
2013-02-10 21:21:00,47.0,45.0,-100.00,SSW,205,11.0,23.0,92,-99.99,,,-99.99,,2013-02-11 03:21:00,
2013-02-10 21:32:00,47.0,45.0,-100.00,SSW,205,11.0,23.0,92,-99.99,,,-99.99,,2013-02-11 03:32:00,
2013-02-10 21:42:00,48.0,46.0,-100.00,WSW,240,8.0,18.0,92,-99.99,,,-99.99,,2013-02-11 03:42:00,
2013-02-10 21:52:00,47.0,45.0,-100.00,SW,220,9.0,20.0,92,-99.99,,,-99.99,,2013-02-11 03:52:00,
2013-02-10 22:01:00,47.0,45.0,-100.00,SW,220,9.0,20.0,92,-99.99,,,-99.99,,2013-02-11 04:01:00,
2013-02-10 22:11:00,46.0,44.0,-100.00,SW,235,10.0,21.0,91,-99.99,,,-99.99,,2013-02-11 04:11:00,
2013-02-10 22:21:00,45.0,42.0,-100.00,SW,230,9.0,22.0,89,-99.99,,,-99.99,,2013-02-11 04:21:00,
2013-02-10 22:32:00,45.0,42.0,-100.00,SW,230,9.0,22.0,89,-99.99,,,-99.99,,2013-02-11 04:32:00,
2013-02-10 22:42:00,45.0,41.0,-100.00,WSW,245,9.0,26.0,85,-99.99,,,-99.99,,2013-02-11 04:42:00,
2013-02-10 22:52:00,46.0,39.0,-100.00,SW,225,8.0,26.0,76,-99.99,,,-99.99,,2013-02-11 04:52:00,
2013-02-10 23:01:00,46.0,39.0,-100.00,SW,225,8.0,26.0,76,-99.99,,,-99.99,,2013-02-11 05:01:00,
2013-02-10 23:12:00,46.0,36.0,-100.00,WSW,245,14.0,26.0,69,-99.99,,,-99.99,,2013-02-11 05:12:00,
2013-02-10 23:22:00,46.0,34.0,-100.00,WSW,245,14.0,32.0,62,-99.99,,,-99.99,,2013-02-11 05:22:00,
2013-02-10 23:32:00,46.0,34.0,-100.00,WSW,245,14.0,32.0,62,-99.99,,,-99.99,,2013-02-11 05:32:00,
2013-02-10 23:42:00,45.0,32.0,-100.00,WSW,245,17.0,35.0,61,-99.99,,,-99.99,,2013-02-11 05:42:00,
2013-02-10 23:53:00,45.0,31.0,-100.00,SW,220,13.0,37.0,58,-99.99,,,-99.99,,2013-02-11 05:53:00,